Tracking 32991 objects as of 22-Jan-2026
HD Live streaming from Space Station
objects crossing your sky now

QIANFAN-4

Track QIANFAN-4 now!
10-day predictions
QIANFAN-4 is classified as:


NORAD ID: 60382
Int'l Code: 2024-140D
Perigee: 1,064.7 km
Apogee: 1,086.8 km
Inclination: 89.0 °
Period: 106.6 minutes
Semi major axis: 7446 km
RCS: Unknown
Launch date: August 6, 2024
Source: People's Republic of China (PRC)
Launch site: Taiyaun Space Center, China (TSC)
Your satellite tracking list
Your tracking list is empty




NASA's NSSDC Master Catalog

Two Line Element Set (TLE):
1 60382U 24140D   26022.44031491  .00000245  00000-0  36052-3 0  9998
2 60382  88.9779 294.9458 0014840  72.4597 287.8174 13.50989461 72935
Source of the keplerian elements: AFSPC